Location: Newark
(27.2452°N, 107.0032°W)
Time: 10:39:39
(UTC+00:00)

Hubble Space Telescope - Pass Details

Date: 24 December 2019
Orbit: 536 x 540 km, 28.5° (Epoch: 18 January)

Event Time Altitude Azimuth Distance (km) Brightness Sun altitude
Exits shadow 11:32:01 26° 109° (ESE) 1,085 2.9 -30.8°
Drops below altitude 10° 11:33:52 10° 106° (ESE) 1,782 4.3 -30.4°
Sets 11:36:07 0° 105° (ESE) 2,673 5.5 -29.9°
